COSMOS 1275 DEB, 39942

Orbit data source: Space-Track

COSMOS 1275 DEB, 39942 is space debris in LEO originally from a launch on Thu, 04 Jun 1981 UTC launched from the Plesetsk Missile And Space Complex (PKMTR). Debris objects in space refer to the collection of defunct objects orbiting the Earth. Examples of debris include non-operational satellites, rocket bodies, and fragments generated from explosions, collisions, or faulty payload assembly.

Loading next visibility...
Identifier
39942, 1981-053NC
Orbit
LEO
Country
Flag of CISCIS
Related business
Manufacturer
Unknown
Mission
Spacecraft
Bus & Motor
Unknown
Mass
Unknown
Launch date (UTC)
1981-06-04 (44 years ago)
Launch vehicle
Unknown
Launch site
Plesetsk Missile And Space Complex (PKMTR)
Object type
Payload
Rocket body
Debris
Shape & HBR
Unknown shape, 0.1 m
Radar Cross Section
Small (<0.1 m²)

Expand to show TLE details & history
Last TLE update: 4 days ago

TLE from 4 days ago
0 COSMOS 1275 DEB
1 39942U 81053NC  25285.44639647  .00001868  00000-0  13087-2 0  9993
2 39942  83.1762 342.5065 0046975 125.1284 235.4302 13.97308201577007
Epoch: 2025-10-12T10:42Z
TLE epoch observation values (Epoch: 2025-10-12T10:42:48.655Z)
Latitude
0.00005°
Longitude
160.54037°
Altitude
925.588 km
Speed
7.379 km/s
True Right ascension
22h 50m 01s
True Declination
0° 00' 00"
Sunlit
Object was in full shadow at epoch
Visualization orbit readout
Latitude
Unknown
Longitude
Unknown
Altitude
Unknown
Speed
Unknown
Apparent Right ascension
Unknown
Apparent Declination
Unknown
Sunlit
N/A
Visualization observer readout
Local Sidereal Time
07:42:36
Azimuth
Unknown
Elevation
Unknown
Doppler factor
Unknown
Orbital elements
Apogee altitude
934.431 km
Perigee altitude
866.05 km
Semi-major axis
7,278.377 km
Eccentricity
0.0047
Inclination
83.1762°
RAAN
342.5065°
Arg. of periapsis
125.1284°
True anomaly
234.98843°
Mean anomaly
235.4302°
Eccentric anomaly
235.20917°
Mean motion
3.49536 °/min
Orbital period
102.99 mins
BSTAR
0.0013087
Loading maneuver chart data...
Computing Atmospheric mass density...
Loading historical data...
Loading historical data...
Loading historical data...
Loading historical data...
Loading historical data...
Loading historical data...
Loading historical data...

Documentation

Showing up to 5 results
|